This is the latest recevied weather packets stored in our database for station/object OM8AKX-12. If no packets are shown the sender has not sent any weather packets the latest 10 day(s).
| Time | Temp. | Humidity | Pressure | Rain* | Wind** | Luminosity | Snow |
|---|---|---|---|---|---|---|---|
| 1787867478 | 17.22° C | 53% | 1016.9 hPa | - | - | - | - |
| 1787866578 | 17.78° C | 52% | 1017 hPa | - | - | - | - |
| 1787865678 | 17.78° C | 51% | 1017 hPa | - | - | - | - |
| 1787864778 | 17.78° C | 51% | 1016.9 hPa | - | - | - | - |
| 1787863878 | 18.33° C | 50% | 1016.8 hPa | - | - | - | - |
| 1787862978 | 18.33° C | 49% | 1016.8 hPa | - | - | - | - |
| 1787862078 | 18.89° C | 48% | 1016.6 hPa | - | - | - | - |
| 1787861178 | 19.44° C | 46% | 1016.6 hPa | - | - | - | - |
| 1787860278 | 19.44° C | 46% | 1016.5 hPa | - | - | - | - |
| 1787859378 | 19.44° C | 46% | 1016.4 hPa | - | - | - | - |
| 1787858478 | 19.44° C | 45% | 1016.4 hPa | - | - | - | - |
| 1787857578 | 20° C | 44% | 1016.3 hPa | - | - | - | - |
| 1787856677 | 20.56° C | 43% | 1016.1 hPa | - | - | - | - |
| 1787855777 | 20.56° C | 42% | 1015.9 hPa | - | - | - | - |
| 1787854877 | 21.11° C | 42% | 1015.9 hPa | - | - | - | - |
| 1787853977 | 21.11° C | 42% | 1015.9 hPa | - | - | - | - |
| 1787853077 | 21.67° C | 42% | 1015.6 hPa | - | - | - | - |
| 1787852177 | 22.22° C | 40% | 1015.4 hPa | - | - | - | - |
| 1787851277 | 22.78° C | 39% | 1015.3 hPa | - | - | - | - |
| 1787850377 | 23.33° C | 37% | 1015.2 hPa | - | - | - | - |
| 1787849477 | 23.89° C | 35% | 1015.1 hPa | - | - | - | - |
| 1787848577 | 24.44° C | 34% | 1015 hPa | - | - | - | - |
| 1787847677 | 25° C | 32% | 1014.8 hPa | - | - | - | - |
| 1787846777 | 26.67° C | 29% | 1014.8 hPa | - | - | - | - |
| 1787845877 | 27.22° C | 28% | 1014.9 hPa | - | - | - | - |
* Rain since midnight (hover to see other rain measurements)
** Current wind speed in m/s (hover to see current wind gust speed)